Location: Rancho Del Sol Observatory
(38.7214°N, 120.6350°W)
Time: 05:37:23
(UTC-08:00)

Courier 1B - Pass Details

Date: 19 January 2020
Orbit: 962 x 1209 km, 28.3° (Epoch: 25 February)

Event Time Altitude Azimuth Distance (km) Brightness Sun altitude
Exits shadow 05:53:52 - 237° (WSW) 3,317 9.9 -16.2°
Reaches altitude 10° 05:54:36 10° 234° (SW) 3,099 9.7 -16.1°
Maximum altitude 06:01:29 36° 171° (S) 1,810 9.1 -14.8°
Drops below altitude 10° 06:08:28 10° 109° (ESE) 3,137 11.6 -13.5°
Sets 06:11:34 0° 101° (E) 4,091 12.8 -12.9°
